Location: Burkes Observatory
(44.7598°N, 69.4315°W)
Time: 04:23:07
(UTC-04:00)

Daily predictions for brighter satellites

Satellite Brightness Start Highest point End
(mag) Time Altitude Azimuth Time Altitude Azimuth Time Altitude Azimuth
Cosmos 1689 Rocket 3.4 00:07:45 43° N 00:07:45 43° N 00:10:02 10° N
Helios 1A Rocket 3.5 00:04:25 10° NNE 00:07:56 46° ENE 00:07:56 46° ENE
Cosmos 468 Rocket 4.1 00:04:55 10° NNW 00:10:12 68° ENE 00:11:17 53° SE
Meteor 1-16 Rocket 4.2 00:07:46 10° NNW 00:13:22 76° W 00:14:35 56° SSW
Cosmos 1814 Rocket 4.2 00:10:06 10° NNW 00:15:22 66° ENE 00:16:32 51° ESE
COSMOS 2487 3.2 00:16:19 50° NW 00:16:19 50° NW 00:19:30 10° N
Lacrosse 5 rocket 4.4 00:14:26 10° NNW 00:17:09 16° N 00:19:57 10° NE
Cosmos 1766 Rocket 3.5 00:17:07 73° ESE 00:17:11 73° E 00:21:41 10° NNE
COSMOS 2406 4.2 00:21:08 23° WSW 00:24:15 43° WNW 00:29:44 10° NNE
Cosmos 405 Rocket 3.3 00:25:01 52° NE 00:25:01 52° NE 00:28:11 10° NNE
Cosmos 1340 3.9 00:24:54 32° WNW 00:24:57 32° WNW 00:28:25 10° N
Cosmos 2278 3.8 00:19:31 10° NNW 00:25:11 70° ENE 00:26:47 47° SE
Cosmos 1980 Rocket 4.4 00:23:10 10° N 00:27:16 20° NE 00:31:21 10° E
Cosmos 1328 Rocket 3.9 00:23:02 10° N 00:27:20 53° ENE 00:27:33 52° E
Cosmos 2026 Rocket 4.1 00:26:10 44° SW 00:28:01 65° W 00:34:04 10° N
Cosmos 1818 3.7 00:23:46 10° NNW 00:29:16 72° NE 00:30:50 47° ESE
H-2A R/B 2.8 00:26:01 10° N 00:29:41 49° WNW 00:29:41 49° WNW
Cosmos 1486 Rocket 4.1 00:29:19 54° SE 00:29:45 56° ESE 00:34:51 10° NNE
ATLAS 3B R/B 4.4 00:24:08 10° W 00:30:58 34° NW 00:37:36 10° NNE
Landsat 5 3.8 00:31:28 53° WNW 00:31:28 53° WNW 00:34:59 10° NNW
Cosmos 2221 3.2 00:27:36 10° NNW 00:31:38 42° W 00:31:38 42° W
NOSS 3-2 (A) 3.4 00:31:53 51° SSW 00:33:35 78° ESE 00:40:18 10° NE
Cosmos 1076 Rocket 3.6 00:34:30 66° W 00:34:30 66° W 00:38:45 10° N
Cosmos 2228 Rocket 2.9 00:31:24 10° N 00:35:51 87° E 00:35:54 86° ESE
Cosmos 1515 Rocket 3.9 00:33:58 10° N 00:38:21 55° ENE 00:38:40 53° E
Cosmos 1707 4.5 00:46:39 23° W 00:46:55 24° WNW 00:50:09 10° NNW
Cosmos 2082 Rocket 2.8 00:47:00 38° SE 00:47:42 40° ESE 00:52:57 10° NE
ISS -0.9 00:45:23 10° WNW 00:48:06 24° N 00:50:51 10° NE
Cosmos 1697 Rocket 3.8 00:43:31 10° NNW 00:48:51 40° NE 00:52:14 20° ESE
CZ-4B R/B 3.4 00:50:52 24° WNW 00:50:52 24° WNW 00:53:12 10° NW
Cosmos 1763 Rocket 3.5 00:47:59 10° NNW 00:53:20 76° ENE 00:54:30 54° SE
Cosmos 1833 Rocket 3.4 00:58:23 36° SE 00:59:14 38° ESE 01:04:25 10° NE
Cosmos 883 Rocket 4.5 00:53:41 10° N 01:00:05 85° E 01:02:03 48° SSE
Meteor 1-24 Rocket 4.5 00:58:29 35° WSW 01:00:25 47° WNW 01:06:10 10° N
ALOS 2 4.2 01:02:49 23° W 01:02:49 23° W 01:06:08 10° NW
USA 215 4.3 00:57:22 10° ENE 01:02:43 26° SE 01:03:16 26° SE
Aureole 1 Rocket 4.5 00:59:54 10° N 01:04:02 39° ENE 01:06:46 23° ESE
Cosmos 1867 3.5 01:04:21 59° SSE 01:05:09 68° ESE 01:10:37 10° NE
PSLV R/B 3.9 01:09:16 77° ESE 01:09:27 79° ENE 01:13:39 10° N
Cosmos 1354 Rocket 4.0 01:14:26 59° S 01:15:24 75° ESE 01:20:43 10° NNE
CZ-2C R/B 3.2 01:14:18 51° SSE 01:15:47 86° ENE 01:21:32 10° NNW
USA 32 4.4 01:12:57 10° N 01:18:08 57° E 01:19:41 41° SE
Cosmos 1674 2.9 01:22:02 64° ENE 01:22:02 64° ENE 01:25:30 10° NNE
Cosmos 1503 Rocket 4.0 01:21:31 58° S 01:22:35 83° ESE 01:27:56 10° NNE
Lacrosse 5 2.6 01:18:30 10° NW 01:23:29 53° NE 01:28:25 10° ESE
Cosmos 1726 4.2 01:21:04 10° NNE 01:23:55 21° ENE 01:25:01 18° E
Cosmos 1656 3.6 01:19:44 10° NNW 01:25:29 87° WSW 01:27:15 47° SSE
Cosmos 2315 Rocket 3.9 01:19:53 10° N 01:26:16 86° W 01:28:24 45° S
SL-16 R/B 4.4 01:23:06 10° N 01:27:32 23° NE 01:31:56 10° E
Meteor 2-20 Rocket 4.5 01:26:41 46° SSW 01:28:34 74° W 01:34:46 10° N
Cosmos 1328 4.2 01:29:01 50° ESE 01:29:10 50° E 01:33:04 10° NNE
Cosmos 2344 3.6 01:27:46 37° SSW 01:31:21 85° SE 01:40:22 10° NE
Cosmos 841 Rocket 3.6 01:26:37 10° NNW 01:31:46 56° WSW 01:32:26 52° SW
Meteor 1-21 Rocket 4.4 01:30:27 45° SW 01:32:02 62° WNW 01:37:41 10° N
Iridium 2 4.3 01:31:56 47° E 01:32:03 47° E 01:35:44 10° NNE
Cosmos 724 4.2 01:31:18 50° S 01:32:48 75° ESE 01:38:41 10° NE
CZ-2C R/B 3.0 01:27:41 10° N 01:33:08 56° WNW 01:34:45 41° WSW
Meteor 2-2 Rocket 4.4 01:27:45 10° NNW 01:33:22 61° W 01:34:44 48° SSW
Cosmos 1437 4.4 01:38:22 27° E 01:38:22 27° E 01:41:08 10° NNE
CENTAUR R/B 3.0 01:37:24 38° SSE 01:39:13 48° ESE 01:45:43 10° NE
NOSS 3-2 (C) 4.1 01:35:49 26° WSW 01:39:17 54° NW 01:45:59 10° NNE
Cosmos 1151 Rocket 3.1 01:36:21 10° NNW 01:40:33 55° W 01:40:37 55° W
Cosmos 2266 Rocket 4.5 01:38:31 36° SW 01:40:46 51° WNW 01:47:02 10° N
Cosmos 2322 Rocket 4.0 01:36:05 10° N 01:40:56 29° NE 01:45:45 10° ESE
BREEZE-M DEB (TANK) 3.8 01:32:09 10° W 01:41:52 52° NNW 01:45:01 10° ENE
CZ-4C R/B 3.1 01:40:01 23° W 01:43:08 44° NW 01:49:03 10° NNE
Cosmos 2058 3.1 01:47:11 55° SE 01:47:45 62° E 01:51:54 10° NNE
Cosmos 2151 2.9 01:48:54 66° SW 01:49:20 74° W 01:53:37 10° N
Genesis I 4.1 01:51:12 10° NW 01:53:58 36° WNW 01:53:58 36° WNW
Lacrosse 5 rocket 3.2 01:53:32 10° NW 01:57:30 34° NNE 02:01:37 10° E
IRAS Rocket 4.4 01:55:05 10° NNE 02:00:33 61° ESE 02:02:40 36° SSE
Sich 1 3.4 02:01:34 43° SSE 02:02:42 59° E 02:07:05 10° NNE
Abrixas 3.3 02:04:04 49° ENE 02:04:04 49° ENE 02:06:25 10° ENE
Cosmos 405 3.4 02:01:33 10° NNW 02:04:46 51° WNW 02:04:46 51° WNW
PSLV R/B 3.6 02:03:05 10° NNE 02:07:45 90° WNW 02:08:55 50° SSW
ASTEX 1 3.7 02:04:39 10° N 02:09:30 53° W 02:10:51 41° SW
Cosmos 1980 Rocket 2.1 02:06:18 10° NNW 02:11:57 79° WSW 02:14:53 29° SSE
Cosmos 1437 Rocket 4.1 02:13:57 10° NW 02:17:00 26° W 02:17:00 26° W
BREEZE-M DEB (TANK) 3.4 02:18:51 29° SE 02:19:05 29° SE 02:24:09 10° ENE
CZ-2D R/B 4.4 02:16:59 10° NE 02:20:11 16° E 02:23:21 10° SE
Cosmos 1300 2.8 02:20:11 10° NNW 02:23:56 52° W 02:24:16 50° WSW
ERS-2 2.1 02:20:40 10° NNE 02:24:24 81° ESE 02:25:09 55° S
ISS -1.4 02:22:12 10° NW 02:25:11 32° NNE 02:28:10 10° E
NPP 3.8 02:20:29 10° NNE 02:25:53 71° ESE 02:28:32 31° S
ARIANE 5 R/B 4.3 02:22:10 10° NE 02:26:20 25° E 02:30:17 11° SSE
Cosmos 2082 Rocket 3.3 02:28:49 21° WSW 02:31:50 34° NW 02:37:00 10° N
Cosmos 1697 Rocket 3.4 02:27:41 10° NW 02:32:44 34° WSW 02:33:55 30° SW
Cosmos 332 Rocket 4.0 02:34:23 10° NNW 02:39:01 50° WSW 02:40:39 35° SSW
Cosmos 540 Rocket 4.1 02:37:16 10° NW 02:41:57 36° WSW 02:43:16 31° SW
Cosmos 2242 Rocket 3.8 02:38:13 10° NNW 02:42:32 53° W 02:43:56 36° SSW
Cosmos 1833 Rocket 3.7 02:40:04 21° WSW 02:43:10 36° NW 02:48:21 10° NNE
Cosmos 2181 Rocket 4.4 02:37:17 10° N 02:43:23 61° E 02:49:31 10° SSE
SL-08 R/B 3.4 02:42:54 29° S 02:45:17 66° WSW 02:50:11 10° NNW
OAO 3 Rocket 4.4 02:46:04 22° SSE 02:46:04 22° SSE 02:49:24 10° ESE
Meteor 2-10 4.0 02:40:38 10° N 02:45:51 88° W 02:49:43 20° S
USA 215 3.2 02:39:40 10° NE 02:46:14 89° SE 02:50:36 23° SW
Meteor 1-4 Rocket 2.7 02:43:21 10° N 02:47:07 79° E 02:49:06 27° SSE
Cosmos 1455 2.3 02:47:38 10° N 02:51:27 72° E 02:53:42 23° SSE
Cosmos 2360 4.4 02:48:06 10° NW 02:53:38 53° WSW 02:57:25 20° S
ATLAS 5 CENTAUR R/B 3.5 02:50:42 15° SSE 02:53:42 25° ESE 02:57:55 10° ENE
Cosmos 1633 Rocket 3.9 02:56:59 27° WSW 02:58:37 37° WNW 03:02:46 10° N
Cosmos 1726 3.3 02:56:12 10° NNW 02:59:18 26° W 02:59:41 25° WSW
IRS-1C 4.1 02:54:11 10° NNE 02:59:33 86° WNW 03:02:58 23° SSW
Lacrosse 5 2.5 03:01:45 10° WNW 03:06:15 33° SW 03:09:23 17° S
Cosmos 1869 3.2 03:03:40 10° N 03:07:40 86° W 03:10:30 18° S
Cosmos 1703 Rocket 4.2 03:07:24 10° N 03:11:43 54° ENE 03:15:58 10° SSE
SL-16 R/B 2.2 03:06:32 10° NNW 03:12:11 69° WSW 03:17:48 10° SSE
ATLAS CENTAUR R/B 4.1 03:11:10 10° NNW 03:15:12 26° NE 03:19:00 10° E
SL-16 R/B 2.7 03:09:38 10° SSE 03:15:53 78° ENE 03:22:10 10° NNW
Cosmos 1470 Rocket 4.0 03:14:30 24° SW 03:16:51 47° WNW 03:21:09 10° N
Resurs 1-4 Rocket 2.8 03:12:11 10° NNE 03:17:23 51° E 03:22:34 10° S
Cosmos 2292 Rocket 2.7 03:17:09 25° S 03:18:47 87° E 03:22:20 10° N
Cosmos 1703 4.3 03:19:12 22° WSW 03:20:56 31° WNW 03:24:29 10° N
Cosmos 1626 2.2 03:18:58 25° SSW 03:21:00 62° W 03:24:45 10° N
Cosmos 1933 Rocket 4.1 03:19:13 23° SW 03:21:35 43° WNW 03:25:48 10° N
Cosmos 968 Rocket 4.0 03:19:06 20° SW 03:22:18 45° WNW 03:27:15 10° N
Cosmos 2322 Rocket 2.4 03:19:49 10° NW 03:25:14 50° WSW 03:30:37 10° S
CENTAUR R/B 3.5 03:24:34 13° WSW 03:30:00 42° NW 03:36:42 10° NNE
Cosmos 371 Rocket 4.4 03:26:55 10° NW 03:30:52 25° W 03:33:06 18° SW
Cosmos 1933 3.3 03:28:23 10° N 03:32:26 87° W 03:36:28 10° S
Cosmos 1271 Rocket 3.7 03:29:25 10° NNW 03:32:42 28° W 03:34:24 20° SW
EO 1 Del DPAF 3.4 03:30:49 12° S 03:34:23 58° W 03:38:16 10° NNW
Spot 4 Rocket 4.2 03:29:32 10° N 03:34:36 58° WNW 03:38:41 16° SSW
USA 161 2.5 03:34:43 21° W 03:34:43 21° W 03:36:36 10° NW
CZ-3 Stage 3 4.2 03:29:30 10° WSW 03:36:56 21° SSW 03:40:07 10° SSE
Lacrosse 5 rocket 1.7 03:32:41 10° WNW 03:36:57 50° SW 03:41:21 10° SSE
Cosmos 1709 Rocket 4.3 03:33:47 16° SSW 03:38:48 51° WNW 03:44:55 10° N
Abrixas 3.8 03:36:42 10° WNW 03:39:39 39° N 03:42:36 10° ENE
Cosmos 923 Rocket 4.3 03:35:06 10° NNW 03:40:09 48° WSW 03:45:09 10° S
Cosmos 1346 3.1 03:39:40 18° SSW 03:41:49 70° W 03:44:54 10° N
Okean 1-7 3.2 03:39:16 10° N 03:43:41 75° E 03:48:03 10° SSE
Okean O Rocket 2.7 03:42:32 10° NNE 03:46:47 42° E 03:50:58 10° S
Cosmos 304 Rocket 3.8 03:42:57 10° NNW 03:47:43 60° WSW 03:52:26 10° S
Cosmos 1680 Rocket 3.7 03:44:55 10° NNW 03:49:58 51° WSW 03:54:59 10° S
USA 129 2.5 03:50:47 18° WNW 03:50:47 18° WNW 03:51:22 10° NW
H-2A R/B 4.0 03:45:24 13° SW 03:50:44 39° SSE 04:20:49 10° ESE
ASTRO F (AKARI) 4.4 03:48:25 10° SSE 03:51:43 81° ENE 03:54:55 10° NNW
Meteor 1-26 Rocket 4.2 03:48:01 10° N 03:53:38 89° E 03:59:09 10° S
Cosmos 1980 Rocket 4.0 03:53:30 10° W 03:54:57 11° W 03:56:26 10° WSW
Cosmos 2360 Rocket 2.1 03:51:05 10° NNW 03:56:44 76° WSW 04:02:20 10° SSE
CZ-2D R/B 2.2 03:55:33 10° N 04:00:46 70° WNW 04:06:01 10° SSW
ISS -3.3 03:58:34 10° WNW 04:01:47 59° SW 04:05:00 10° SE
CZ-4B R/B 4.0 03:57:43 10° NNE 04:03:02 53° E 04:08:25 10° S
In-Cosmos 22 Rocket 4.5 03:58:14 10° S 04:03:29 68° E 04:08:52 10° NNE
Thor Agena Rocket 3.8 03:59:15 10° SSE 04:04:31 77° ENE 04:09:50 10° NNW
IRS-1D 4.0 04:00:24 10° N 04:05:35 50° WNW 04:10:41 10° SW
ARIANE 5 R/B 3.1 04:00:48 10° N 04:05:39 44° WNW 04:10:24 10° SW
Cosmos 2221 Rocket 4.2 04:03:18 10° NNW 04:07:31 39° W 04:11:43 10° SSW
Cosmos 2322 3.8 04:03:46 10° NNW 04:09:26 62° WSW 04:15:03 10° S
Cosmos 2219 3.6 04:05:03 10° SSW 04:10:42 65° ESE 04:16:25 10° NNE
Cosmos 389 Rocket 3.1 04:11:22 10° N 04:15:03 64° ENE 04:18:43 10° SSE
CZ-2C R/B 3.7 04:11:43 10° S 04:16:10 67° WSW 04:20:43 10° NNW
SL-24 DEB 4.2 04:12:23 10° N 04:17:05 80° W 04:21:42 10° S
Cosmos 1869 Rocket 4.2 04:18:00 10° SW 04:22:05 38° WNW 04:26:16 10° N
Cosmos 1898 Rocket 3.6 04:17:30 10° SSW 04:22:41 86° ESE 04:27:54 10° NNE
Meteor 2-10 Rocket 4.0 04:18:48 10° N 04:23:49 66° ENE 04:28:55 10° SSE
